Location: Roc des P�zouls
(43.9667°N, 3.5500°E)
Time: 05:54:40
(UTC+00:00)

Cosmos 2061 Rocket - Pass Details

Date: 14 November 2019
Orbit: 965 x 1013 km, 82.9° (Epoch: 12 December)

Event Time Altitude Azimuth Distance (km) Brightness Sun altitude
Rises 05:25:33 0° 186° (S) 3,684 7.1 -13.3°
Reaches altitude 10° 05:28:04 10° 186° (S) 2,733 6.4 -12.9°
Maximum altitude 05:34:21 89° 268° (W) 983 4.0 -11.8°
Drops below altitude 10° 05:40:36 10° 8° (N) 2,723 6.3 -10.7°
Sets 05:43:07 0° 9° (N) 3,671 6.9 -10.2°
